Location: Unspecified
(0.0000°N, 0.0000°E)
Time: 10:09:19
(UTC+00:00)

FAST 1 (USA 222) - Pass Details

Date: 07 June 2024
Orbit: 613 x 632 km, 72.0° (Epoch: 13 June)

Event Time Altitude Azimuth Distance (km) Brightness Sun altitude
Rises 05:14:56 0° 172° (S) 2,897 ? -10.1°
Reaches altitude 10° 05:17:35 10° 157° (SSE) 1,985 ? -9.5°
Maximum altitude 05:21:05 23° 105° (ESE) 1,330 ? -8.7°
Drops below altitude 10° 05:24:33 10° 53° (NE) 1,969 ? -7.9°
Sets 05:27:10 0° 38° (NE) 2,868 ? -7.3°
